IU1JVO-13 Weather Reports


Display with metric or nautical units.
time (UTC)temp
F
wind
direction
speed
MPH
gust
MPH
rain 1hr
in
rain 24hr
in
rain mn
in
humidity
%
barometer
mb
20260903050137 69 285 3.0 10.0 0.00 0.00 0.00 31 1022.9
20260903045636 69 272 4.0 10.0 0.00 0.00 0.00 30 1022.9
20260903045554 69 271 4.0 10.0 0.00 0.00 0.00 30 1022.9
20260903045136 69 279 3.0 10.0 0.00 0.00 0.00 31 1022.8
20260903044636 68 288 1.0 6.0 0.00 0.00 0.00 33 1022.7
20260903044555 68 289 1.0 5.0 0.00 0.00 0.00 33 1022.7
20260903044136 68 292 1.0 4.0 0.00 0.00 0.00 34 1022.7
20260903043636 68 300 1.0 4.0 0.00 0.00 0.00 33 1022.6
20260903043555 68 301 1.0 4.0 0.00 0.00 0.00 33 1022.6
20260903043136 68 318 1.0 4.0 0.00 0.00 0.00 33 1022.6
20260903042636 68 331 1.0 3.0 0.00 0.00 0.00 34 1022.5
20260903042553 68 330 1.0 3.0 0.00 0.00 0.00 33 1022.5
20260903042136 68 328 1.0 4.0 0.00 0.00 0.00 34 1022.6
20260903041913 68 341 1.0 4.0 0.00 0.00 0.00 35 1022.6
20260903041552 68 343 1.0 5.0 0.00 0.00 0.00 34 1022.6
20260903041137 68 335 1.0 5.0 0.00 0.00 0.00 34 1022.7
20260903040637 68 323 1.0 5.0 0.00 0.00 0.00 35 1022.6
20260903040553 68 321 1.0 5.0 0.00 0.00 0.00 35 1022.6
20260903040141 68 313 1.0 5.0 0.00 0.00 0.00 36 1022.6
20260903035638 68 300 2.0 5.0 0.00 0.00 0.00 35 1022.7
20260903035551 68 300 2.0 5.0 0.00 0.00 0.00 36 1022.7
20260903035137 68 305 1.0 5.0 0.00 0.00 0.00 36 1022.7
20260903034635 67 333 1.0 4.0 0.00 0.00 0.00 37 1022.6
20260903034552 67 339 0.0 4.0 0.00 0.00 0.00 38 1022.6
20260903034137 67 2 0.0 1.0 0.00 0.00 0.00 38 1023.1
20260903033635 67 8 0.0 2.0 0.00 0.00 0.00 39 1023.0
20260903033552 67 8 0.0 2.0 0.00 0.00 0.00 39 1023.0
20260903033138 68 22 0.0 3.0 0.00 0.00 0.00 39 1023.1
20260903032553 68 47 0.0 3.0 0.00 0.00 0.00 39 1023.2
20260903032137 68 35 1.0 3.0 0.00 0.00 0.00 38 1023.1
20260903031909 69 25 0.0 3.0 0.00 0.00 0.00 38 1023.1
20260903031552 69 23 0.0 3.0 0.00 0.00 0.00 38 1023.1
20260903031135 69 38 0.0 3.0 0.00 0.00 0.00 36 1023.3
20260903030636 70 13 0.0 8.0 0.00 0.00 0.00 34 1023.2
20260903030553 70 6 0.0 8.0 0.00 0.00 0.00 35 1023.2
20260903030137 71 331 1.0 8.0 0.00 0.00 0.00 33 1023.2
20260903025636 72 310 1.0 8.0 0.00 0.00 0.00 31 1023.1
20260903025550 72 307 2.0 8.0 0.00 0.00 0.00 31 1023.1
20260903025404 72 311 2.0 8.0 0.00 0.00 0.00 31 1023.2
20260903024636 72 310 2.0 9.0 0.00 0.00 0.00 32 1023.2
20260903024550 72 308 2.0 9.0 0.00 0.00 0.00 31 1023.2
20260903024136 72 295 2.0 9.0 0.00 0.00 0.00 32 1023.2
20260903023906 73 296 3.0 9.0 0.00 0.00 0.00 32 1023.1
20260903023551 73 300 3.0 9.0 0.00 0.00 0.00 32 1023.1
20260903023136 73 295 3.0 9.0 0.00 0.00 0.00 32 1023.1
20260903022635 73 297 2.0 9.0 0.00 0.00 0.00 32 1023.1
20260903022549 73 294 3.0 12.0 0.00 0.00 0.00 32 1023.1
20260903022135 73 295 3.0 12.0 0.00 0.00 0.00 32 1023.1
20260903021635 73 286 4.0 12.0 0.00 0.00 0.00 32 1023.1
20260903021549 73 287 4.0 12.0 0.00 0.00 0.00 32 1023.1
20260903021406 73 285 4.0 12.0 0.00 0.00 0.00 33 1023.1
20260903020903 73 296 3.0 12.0 0.00 0.00 0.00 33 1023.0
20260903020548 73 295 3.0 10.0 0.00 0.00 0.00 33 1023.0
20260903020135 73 296 4.0 10.0 0.00 0.00 0.00 33 1023.1
20260903015635 73 284 4.0 10.0 0.00 0.00 0.00 33 1023.2
20260903015547 73 285 4.0 10.0 0.00 0.00 0.00 33 1023.2
20260903015415 73 284 4.0 10.0 0.00 0.00 0.00 33 1023.2
20260903014635 73 293 4.0 11.0 0.00 0.00 0.00 34 1023.1
20260903014548 73 295 4.0 11.0 0.00 0.00 0.00 34 1023.1
20260903014136 73 282 3.0 11.0 0.00 0.00 0.00 34 1023.1
20260903013636 73 278 4.0 14.0 0.00 0.00 0.00 34 1023.1
20260903013546 73 277 4.0 14.0 0.00 0.00 0.00 34 1023.1
20260903013409 73 284 4.0 14.0 0.00 0.00 0.00 33 1023.3
20260903012636 73 283 5.0 14.0 0.00 0.00 0.00 34 1023.2
20260903012547 73 283 5.0 14.0 0.00 0.00 0.00 34 1023.2
20260903012136 73 282 5.0 14.0 0.00 0.00 0.00 34 1023.1
20260903011636 73 284 4.0 11.0 0.00 0.00 0.00 35 1023.1
20260903011546 73 281 4.0 11.0 0.00 0.00 0.00 35 1023.1
20260903011134 73 287 4.0 12.0 0.00 0.00 0.00 35 1023.2
20260903010633 74 288 4.0 12.0 0.00 0.00 0.00 34 1023.2
20260903010547 74 291 4.0 12.0 0.00 0.00 0.00 34 1023.2
20260903010133 73 281 4.0 12.0 0.00 0.00 0.00 35 1023.1
20260903005634 74 270 5.0 12.0 0.00 0.00 0.00 35 1023.2
20260903005547 73 269 5.0 12.0 0.00 0.00 0.00 35 1023.1
20260903005133 74 276 4.0 11.0 0.00 0.00 0.00 35 1023.1
20260903004634 73 284 4.0 10.0 0.00 0.00 0.00 36 1023.1
20260903004547 73 284 4.0 10.0 0.00 0.00 0.00 36 1023.0
20260903004131 73 285 3.0 10.0 0.00 0.00 0.00 36 1023.1
20260903003631 73 284 3.0 10.0 0.00 0.00 0.00 37 1023.2
20260903003548 73 282 3.0 10.0 0.00 0.00 0.00 38 1023.2
20260903003132 73 288 3.0 9.0 0.00 0.00 0.00 37 1023.2
20260903002909 73 286 2.0 9.0 0.00 0.00 0.00 37 1023.1
20260903002546 73 288 2.0 9.0 0.00 0.00 0.00 37 1023.1
20260903002132 73 279 3.0 12.0 0.00 0.00 0.00 37 1023.2
20260903001631 73 279 4.0 12.0 0.00 0.00 0.00 37 1023.3
20260903001548 73 281 4.0 12.0 0.00 0.00 0.00 37 1023.3
20260903001131 73 281 4.0 12.0 0.00 0.00 0.00 38 1023.3
20260903000631 73 286 4.0 12.0 0.00 0.00 0.00 39 1023.3
20260903000547 73 282 4.0 12.0 0.00 0.00 0.00 39 1023.3
20260903000133 73 285 4.0 9.0 0.00 0.00 0.00 38 1023.3
20260903000129 73 270 4.0 9.0 0.00 0.00 0.00 39 1023.3
20260902235547 73 267 4.0 9.0 0.00 0.00 0.00 39 1023.3
20260902235400 73 261 4.0 9.0 0.00 0.00 0.00 40 1023.3
20260902234629 74 269 4.0 9.0 0.00 0.00 0.00 38 1023.4
20260902234547 74 273 4.0 9.0 0.00 0.00 0.00 38 1023.4
20260902234130 74 275 4.0 9.0 0.00 0.00 0.00 39 1023.5
20260902233627 74 271 4.0 9.0 0.00 0.00 0.00 38 1023.5
20260902233547 74 271 4.0 9.0 0.00 0.00 0.00 38 1023.5
20260902233128 74 274 4.0 9.0 0.00 0.00 0.00 38 1023.4
20260902232628 74 278 3.0 9.0 0.00 0.00 0.00 38 1023.5
20260902232547 74 279 4.0 9.0 0.00 0.00 0.00 38 1023.5
20260902232127 74 277 4.0 9.0 0.00 0.00 0.00 38 1023.5
20260902231627 74 277 3.0 8.0 0.00 0.00 0.00 39 1023.6
20260902231547 73 274 3.0 8.0 0.00 0.00 0.00 40 1023.5
20260902231128 73 272 3.0 9.0 0.00 0.00 0.00 41 1023.4
20260902230627 73 271 3.0 9.0 0.00 0.00 0.00 41 1023.3
20260902230547 73 274 3.0 9.0 0.00 0.00 0.00 41 1023.3
20260902230126 73 276 3.0 9.0 0.00 0.00 0.00 41 1023.3
20260902225856 73 281 2.0 9.0 0.00 0.00 0.00 41 1023.2
20260902225547 73 279 2.0 9.0 0.00 0.00 0.00 42 1023.2
20260902225128 73 280 2.0 5.0 0.00 0.00 0.00 43 1023.5
20260902224626 72 279 2.0 5.0 0.00 0.00 0.00 45 1023.3
20260902224546 73 278 2.0 5.0 0.00 0.00 0.00 44 1023.3
20260902224122 73 273 2.0 5.0 0.00 0.00 0.00 44 1023.2
20260902223622 73 271 2.0 6.0 0.00 0.00 0.00 44 1023.2
20260902223547 73 272 2.0 6.0 0.00 0.00 0.00 44 1023.2
20260902223121 73 272 2.0 7.0 0.00 0.00 0.00 44 1023.2
20260902222622 74 269 2.0 8.0 0.00 0.00 0.00 45 1023.2
20260902222548 74 271 2.0 8.0 0.00 0.00 0.00 45 1023.2
20260902222122 74 272 3.0 8.0 0.00 0.00 0.00 43 1023.4
20260902221848 74 265 4.0 8.0 0.00 0.00 0.00 43 1023.3
20260902221546 74 262 4.0 8.0 0.00 0.00 0.00 43 1023.3
20260902221119 74 273 3.0 8.0 0.00 0.00 0.00 44 1023.4
20260902220620 74 283 3.0 8.0 0.00 0.00 0.00 45 1023.3
20260902220548 74 284 3.0 8.0 0.00 0.00 0.00 45 1023.3
20260902220120 74 272 3.0 8.0 0.00 0.00 0.00 47 1023.3
20260902215619 74 278 3.0 7.0 0.00 0.00 0.00 47 1023.4
20260902215547 74 280 3.0 7.0 0.00 0.00 0.00 47 1023.4
20260902215351 75 289 3.0 7.0 0.00 0.00 0.00 46 1023.3
20260902214619 74 285 2.0 7.0 0.00 0.00 0.00 49 1023.2
20260902214547 74 283 2.0 7.0 0.00 0.00 0.00 49 1023.2
20260902214115 74 290 2.0 7.0 0.00 0.00 0.00 50 1023.1
20260902213616 74 296 2.0 5.0 0.00 0.00 0.00 51 1023.1
20260902213546 74 295 2.0 5.0 0.00 0.00 0.00 51 1023.1
20260902213115 73 282 2.0 5.0 0.00 0.00 0.00 53 1023.0
20260902212615 73 286 2.0 5.0 0.00 0.00 0.00 55 1022.9
20260902212545 73 287 2.0 5.0 0.00 0.00 0.00 55 1022.9
20260902212115 73 291 2.0 5.0 0.00 0.00 0.00 57 1022.9
20260902211617 73 290 2.0 4.0 0.00 0.00 0.00 58 1023.0
20260902211543 73 289 2.0 4.0 0.00 0.00 0.00 59 1023.0
20260902211115 73 286 1.0 4.0 0.00 0.00 0.00 59 1022.9
20260902210616 72 278 1.0 4.0 0.00 0.00 0.00 59 1022.9
20260902210542 72 278 1.0 4.0 0.00 0.00 0.00 60 1022.9
20260902210115 72 266 1.0 6.0 0.00 0.00 0.00 63 1023.0
20260902205615 73 267 1.0 6.0 0.00 0.00 0.00 61 1022.9
20260902205542 73 266 1.0 6.0 0.00 0.00 0.00 61 1022.9
20260902205352 73 274 2.0 6.0 0.00 0.00 0.00 61 1022.9
20260902204616 74 272 2.0 6.0 0.00 0.00 0.00 60 1023.0
20260902204546 74 275 2.0 6.0 0.00 0.00 0.00 59 1023.0
20260902204116 73 276 2.0 6.0 0.00 0.00 0.00 61 1022.9
20260902203616 74 273 3.0 11.0 0.00 0.00 0.00 60 1022.8
20260902203542 74 272 3.0 11.0 0.00 0.00 0.00 60 1022.8
20260902203115 74 269 2.0 11.0 0.00 0.00 0.00 60 1023.0
20260902202615 74 265 3.0 11.0 0.00 0.00 0.00 59 1023.0
20260902202542 75 264 3.0 11.0 0.00 0.00 0.00 59 1023.0
20260902202116 74 269 4.0 11.0 0.00 0.00 0.00 59 1023.1
20260902201616 74 277 2.0 6.0 0.00 0.00 0.00 60 1023.0
20260902201542 74 279 2.0 6.0 0.00 0.00 0.00 62 1023.0
20260902201343 73 278 2.0 7.0 0.00 0.00 0.00 62 1022.9
20260902200617 73 276 2.0 7.0 0.00 0.00 0.00 63 1022.8
20260902200542 73 276 2.0 7.0 0.00 0.00 0.00 63 1022.8
20260902200350 74 279 3.0 7.0 0.00 0.00 0.00 62 1022.8
20260902195619 74 283 3.0 7.0 0.00 0.00 0.00 61 1022.8
20260902195613 74 283 3.0 7.0 0.00 0.00 0.00 61 1022.8
20260902194616 75 280 3.0 7.0 0.00 0.00 0.00 60 1022.9
20260902194540 75 280 3.0 7.0 0.00 0.00 0.00 60 1022.9
20260902194115 75 273 2.0 7.0 0.00 0.00 0.00 61 1022.8
20260902193616 75 269 2.0 7.0 0.00 0.00 0.00 60 1022.7
20260902193541 75 269 2.0 7.0 0.00 0.00 0.00 60 1022.8
20260902193116 75 280 2.0 7.0 0.00 0.00 0.00 60 1022.7
20260902192616 75 286 1.0 3.0 0.00 0.00 0.00 61 1022.6
20260902192541 75 285 1.0 4.0 0.00 0.00 0.00 61 1022.6
20260902192115 75 305 1.0 5.0 0.00 0.00 0.00 62 1022.5
20260902191615 75 306 1.0 5.0 0.00 0.00 0.00 62 1022.5
20260902191541 75 307 1.0 5.0 0.00 0.00 0.00 62 1022.5
20260902191116 75 265 1.0 5.0 0.00 0.00 0.00 62 1022.5
20260902190617 75 256 1.0 5.0 0.00 0.00 0.00 62 1022.4
20260902190539 75 250 0.0 5.0 0.00 0.00 0.00 63 1022.4
20260902190117 75 231 0.0 1.0 0.00 0.00 0.00 63 1022.5
20260902185616 75 159 0.0 1.0 0.00 0.00 0.00 63 1022.4
20260902185540 75 151 0.0 1.0 0.00 0.00 0.00 63 1022.4
20260902185115 75 120 0.0 1.0 0.00 0.00 0.00 63 1022.3
20260902184615 75 120 0.0 2.0 0.00 0.00 0.00 62 1022.1
20260902184537 75 120 0.0 2.0 0.00 0.00 0.00 62 1022.1
20260902184116 75 120 0.0 3.0 0.00 0.00 0.00 63 1021.8
20260902183616 76 150 0.0 3.0 0.00 0.00 0.00 62 1021.9
20260902183537 76 160 0.0 3.0 0.00 0.00 0.00 62 1021.9
20260902183349 76 234 0.0 3.0 0.00 0.00 0.00 61 1021.9
20260902182618 76 249 0.0 3.0 0.00 0.00 0.00 61 1021.8
20260902182537 76 250 0.0 3.0 0.00 0.00 0.00 61 1021.8
20260902182118 76 246 0.0 2.0 0.00 0.00 0.00 62 1021.8
20260902181616 77 249 0.0 3.0 0.00 0.00 0.00 61 1021.7
20260902181538 77 249 0.0 3.0 0.00 0.00 0.00 61 1021.7
20260902181117 77 251 0.0 3.0 0.00 0.00 0.00 61 1021.7
20260902180616 78 247 0.0 3.0 0.00 0.00 0.00 60 1021.7
20260902180537 78 246 0.0 3.0 0.00 0.00 0.00 60 1021.7
20260902180117 78 241 0.0 3.0 0.00 0.00 0.00 59 1021.8
20260902175847 78 244 0.0 2.0 0.00 0.00 0.00 58 1021.8
20260902175535 78 246 0.0 2.0 0.00 0.00 0.00 58 1021.8
20260902175117 79 256 0.0 2.0 0.00 0.00 0.00 57 1021.7
20260902174617 79 244 0.0 2.0 0.00 0.00 0.00 56 1021.7
20260902174535 79 236 0.0 2.0 0.00 0.00 0.00 56 1021.7
20260902174116 80 173 1.0 2.0 0.00 0.00 0.00 55 1021.5
20260902173616 80 144 0.0 3.0 0.00 0.00 0.00 55 1021.4
20260902173533 80 144 0.0 4.0 0.00 0.00 0.00 54 1021.4
20260902173115 80 136 0.0 7.0 0.00 0.00 0.00 54 1021.3
20260902172615 81 142 1.0 7.0 0.00 0.00 0.00 54 1021.4
20260902172532 81 139 1.0 7.0 0.00 0.00 0.00 53 1021.4
20260902172116 81 147 1.0 7.0 0.00 0.00 0.00 53 1021.4
20260902171615 81 141 1.0 7.0 0.00 0.00 0.00 53 1021.2
20260902171533 81 142 1.0 7.0 0.00 0.00 0.00 53 1021.2
20260902171116 82 150 1.0 6.0 0.00 0.00 0.00 52 1021.2
20260902170616 82 151 3.0 6.0 0.00 0.00 0.00 51 1021.5
20260902170532 82 150 3.0 6.0 0.00 0.00 0.00 51 1021.5
20260902170116 83 170 3.0 6.0 0.00 0.00 0.00 51 1021.5
20260902165616 83 169 3.0 6.0 0.00 0.00 0.00 50 1021.4
20260902165533 83 169 3.0 5.0 0.00 0.00 0.00 50 1021.4
20260902165116 83 136 4.0 5.0 0.00 0.00 0.00 50 1021.4
20260902164851 84 106 2.0 5.0 0.00 0.00 0.00 50 1021.4
20260902164532 84 103 2.0 5.0 0.00 0.00 0.00 50 1021.4
20260902164346 84 85 0.0 4.0 0.00 0.00 0.00 48 1021.5
20260902163616 85 85 0.0 5.0 0.00 0.00 0.00 48 1021.4
20260902163534 85 85 0.0 5.0 0.00 0.00 0.00 48 1021.4
20260902163116 85 85 0.0 9.0 0.00 0.00 0.00 48 1021.4
20260902162616 85 69 2.0 9.0 0.00 0.00 0.00 48 1021.4
20260902162533 85 67 3.0 9.0 0.00 0.00 0.00 48 1021.4
20260902162347 85 54 5.0 9.0 0.00 0.00 0.00 48 1021.4
20260902161843 85 106 3.0 9.0 0.00 0.00 0.00 48 1021.3
20260902161532 85 134 2.0 9.0 0.00 0.00 0.00 48 1021.3
20260902161116 85 199 1.0 7.0 0.00 0.00 0.00 48 1021.4
20260902160844 85 43 2.0 7.0 0.00 0.00 0.00 48 1021.3
20260902160531 85 58 3.0 7.0 0.00 0.00 0.00 48 1021.3
20260902160116 85 114 4.0 7.0 0.00 0.00 0.00 48 1021.3
20260902155616 85 194 3.0 6.0 0.00 0.00 0.00 47 1021.3
20260902155531 85 192 3.0 6.0 0.00 0.00 0.00 47 1021.4
20260902155115 86 150 1.0 3.0 0.00 0.00 0.00 48 1021.5
20260902154612 86 125 0.0 2.0 0.00 0.00 0.00 48 1021.6
20260902154534 86 125 0.0 2.0 0.00 0.00 0.00 48 1021.6
20260902154111 86 105 0.0 2.0 0.00 0.00 0.00 48 1021.5
20260902153611 86 71 1.0 2.0 0.00 0.00 0.00 48 1021.4
20260902153529 86 66 1.0 2.0 0.00 0.00 0.00 48 1021.4
20260902153111 86 64 1.0 2.0 0.00 0.00 0.00 48 1021.4
20260902152613 86 72 1.0 4.0 0.00 0.00 0.00 48 1021.4
20260902152528 86 77 1.0 4.0 0.00 0.00 0.00 48 1021.4
20260902152115 86 108 2.0 4.0 0.00 0.00 0.00 48 1021.4
20260902151612 85 142 2.0 5.0 0.00 0.00 0.00 48 1021.5
20260902151527 85 149 2.0 5.0 0.00 0.00 0.00 48 1021.5
20260902151111 85 232 3.0 5.0 0.00 0.00 0.00 48 1021.4
20260902150610 85 268 3.0 5.0 0.00 0.00 0.00 49 1021.4
20260902150527 85 270 3.0 5.0 0.00 0.00 0.00 49 1021.4
20260902150112 85 280 2.0 5.0 0.00 0.00 0.00 49 1021.4
20260902145611 85 282 2.0 3.0 0.00 0.00 0.00 50 1021.7
20260902145526 85 282 2.0 2.0 0.00 0.00 0.00 50 1021.6
20260902145338 85 282 2.0 2.0 0.00 0.00 0.00 50 1021.6
20260902144611 85 282 2.0 2.0 0.00 0.00 0.00 50 1021.8
20260902144527 85 282 2.0 2.0 0.00 0.00 0.00 50 1021.8
20260902144111 85 282 2.0 6.0 0.00 0.00 0.00 50 1021.5
20260902143624 85 265 2.0 6.0 0.00 0.00 0.00 50 1021.6
20260902143617 85 282 2.0 6.0 0.00 0.00 0.00 50 1021.6
20260902143611 85 282 2.0 6.0 0.00 0.00 0.00 50 1021.6
20260902142611 85 222 2.0 6.0 0.00 0.00 0.00 50 1021.7
20260902142527 85 217 2.0 6.0 0.00 0.00 0.00 50 1021.7
20260902142111 84 221 2.0 7.0 0.00 0.00 0.00 50 1021.6
20260902141610 84 329 2.0 7.0 0.00 0.00 0.00 50 1021.7
20260902141528 84 339 3.0 7.0 0.00 0.00 0.00 50 1021.7
20260902141109 85 353 3.0 7.0 0.00 0.00 0.00 50 1021.6
20260902140610 85 343 3.0 7.0 0.00 0.00 0.00 50 1021.7
20260902140527 85 330 3.0 7.0 0.00 0.00 0.00 50 1021.7
20260902140110 85 271 2.0 6.0 0.00 0.00 0.00 49 1021.8
20260902135609 83 316 1.0 3.0 0.00 0.00 0.00 52 1021.7
20260902135527 83 323 1.0 3.0 0.00 0.00 0.00 52 1021.7
20260902135110 83 331 1.0 1.0 0.00 0.00 0.00 52 1021.8
20260902134610 83 331 1.0 1.0 0.00 0.00 0.00 52 1021.8
20260902134527 83 331 1.0 1.0 0.00 0.00 0.00 52 1021.8
20260902134110 83 331 1.0 1.0 0.00 0.00 0.00 52 1021.6
20260902133607 83 331 1.0 1.0 0.00 0.00 0.00 52 1021.7
20260902133527 83 331 1.0 1.0 0.00 0.00 0.00 52 1021.7
20260902133108 83 331 1.0 4.0 0.00 0.00 0.00 52 1021.7
20260902132607 83 331 1.0 4.0 0.00 0.00 0.00 52 1021.8
20260902132530 83 331 1.0 4.0 0.00 0.00 0.00 52 1021.8
20260902132108 83 303 2.0 4.0 0.00 0.00 0.00 52 1021.8
20260902131607 83 214 4.0 4.0 0.00 0.00 0.00 52 1021.7
20260902131526 83 209 4.0 4.0 0.00 0.00 0.00 52 1021.7
20260902131108 82 203 4.0 4.0 0.00 0.00 0.00 52 1021.8
20260902130607 82 203 4.0 4.0 0.00 0.00 0.00 52 1021.9
20260902130526 82 203 4.0 4.0 0.00 0.00 0.00 52 1021.9
20260902130108 82 203 4.0 4.0 0.00 0.00 0.00 52 1021.9
20260902130104 82 203 4.0 4.0 0.00 0.00 0.00 52 1021.9
20260902125528 82 203 4.0 4.0 0.00 0.00 0.00 52 1021.9
20260902125106 82 203 4.0 4.0 0.00 0.00 0.00 52 1021.8
20260902124606 82 203 4.0 4.0 0.00 0.00 0.00 52 1022.1
20260902124527 82 203 4.0 4.0 0.00 0.00 0.00 52 1022.1
20260902124335 82 203 4.0 6.0 0.00 0.00 0.00 52 1021.8
20260902123606 82 203 4.0 12.0 0.00 0.00 0.00 52 1021.8
20260902123524 82 203 4.0 12.0 0.00 0.00 0.00 52 1021.8
20260902123107 82 207 4.0 12.0 0.00 0.00 0.00 52 1021.9
20260902122605 82 206 4.0 12.0 0.00 0.00 0.00 52 1021.8
20260902122525 82 204 4.0 12.0 0.00 0.00 0.00 52 1021.8
20260902122105 82 209 5.0 12.0 0.00 0.00 0.00 52 1021.9
20260902121605 82 262 5.0 14.0 0.00 0.00 0.00 53 1021.9
20260902121523 82 267 4.0 14.0 0.00 0.00 0.00 53 1021.9
20260902121335 81 325 4.0 14.0 0.00 0.00 0.00 54 1021.9
20260902120606 80 42 5.0 14.0 0.00 0.00 0.00 54 1021.9
20260902120523 80 53 5.0 14.0 0.00 0.00 0.00 54 1021.9
20260902120338 80 345 5.0 14.0 0.00 0.00 0.00 54 1022.0
20260902115839 81 319 5.0 11.0 0.00 0.00 0.00 54 1022.1
20260902115525 81 324 4.0 11.0 0.00 0.00 0.00 55 1022.1
20260902115105 80 348 4.0 11.0 0.00 0.00 0.00 56 1022.1
20260902114609 80 84 4.0 11.0 0.00 0.00 0.00 56 1022.1
20260902114522 80 89 4.0 11.0 0.00 0.00 0.00 56 1022.1
20260902114106 80 86 4.0 11.0 0.00 0.00 0.00 55 1022.3
20260902113606 79 56 4.0 11.0 0.00 0.00 0.00 56 1022.0
20260902113522 79 52 4.0 9.0 0.00 0.00 0.00 56 1022.0
20260902113332 79 40 4.0 14.0 0.00 0.00 0.00 56 1022.0
20260902112605 79 12 4.0 14.0 0.00 0.00 0.00 56 1022.1
20260902112523 79 9 4.0 14.0 0.00 0.00 0.00 55 1022.0
20260902112106 78 6 5.0 14.0 0.00 0.00 0.00 57 1022.0
20260902111607 78 37 6.0 14.0 0.00 0.00 0.00 56 1022.3
20260902111523 78 41 6.0 14.0 0.00 0.00 0.00 56 1022.4
20260902111107 78 26 5.0 12.0 0.00 0.00 0.00 56 1022.5
20260902110607 78 322 4.0 12.0 0.00 0.00 0.00 56 1022.5
20260902110523 78 322 4.0 12.0 0.00 0.00 0.00 56 1022.5
20260902110106 78 335 4.0 12.0 0.00 0.00 0.00 56 1022.5
20260902105606 78 6 4.0 11.0 0.00 0.00 0.00 56 1022.6
20260902105526 78 132 4.0 11.0 0.00 0.00 0.00 55 1022.6
20260902105105 78 136 5.0 12.0 0.00 0.00 0.00 56 1022.7
20260902104606 78 117 6.0 12.0 0.00 0.00 0.00 55 1022.8
20260902104524 78 107 6.0 12.0 0.00 0.00 0.00 55 1022.8
20260902104105 78 324 6.0 12.0 0.00 0.00 0.00 55 1022.8
20260902103606 78 138 5.0 12.0 0.00 0.00 0.00 54 1022.7
20260902103523 78 139 5.0 12.0 0.00 0.00 0.00 54 1022.7
20260902103106 78 68 5.0 12.0 0.00 0.00 0.00 54 1022.8
20260902102606 77 40 5.0 12.0 0.00 0.00 0.00 54 1022.9
20260902102523 77 40 5.0 12.0 0.00 0.00 0.00 55 1022.8
20260902102106 77 46 4.0 10.0 0.00 0.00 0.00 53 1022.9
20260902101606 77 28 4.0 8.0 0.00 0.00 0.00 52 1023.0
20260902101523 77 30 4.0 8.0 0.00 0.00 0.00 50 1023.0
20260902101106 77 51 3.0 8.0 0.00 0.00 0.00 49 1023.1
20260902100606 77 109 2.0 8.0 0.00 0.00 0.00 45 1023.1
20260902100523 77 113 2.0 5.0 0.00 0.00 0.00 43 1023.1
20260902100337 77 109 2.0 5.0 0.00 0.00 0.00 43 1023.3
20260902095606 77 119 2.0 5.0 0.00 0.00 0.00 42 1023.2
20260902095523 77 121 2.0 5.0 0.00 0.00 0.00 41 1023.2
20260902095106 77 129 2.0 5.0 0.00 0.00 0.00 40 1023.2
20260902094607 77 115 2.0 5.0 0.00 0.00 0.00 38 1023.2
20260902094521 77 114 2.0 5.0 0.00 0.00 0.00 39 1023.2
20260902094106 77 115 2.0 5.0 0.00 0.00 0.00 40 1023.3
20260902093841 77 141 1.0 5.0 0.00 0.00 0.00 39 1023.1
20260902093520 77 152 1.0 5.0 0.00 0.00 0.00 39 1023.1
20260902093106 78 187 1.0 4.0 0.00 0.00 0.00 37 1023.2
20260902092606 76 177 2.0 4.0 0.00 0.00 0.00 39 1023.2
20260902092521 76 170 2.0 4.0 0.00 0.00 0.00 39 1023.2
20260902092106 77 176 1.0 4.0 0.00 0.00 0.00 39 1023.2
20260902091606 76 193 1.0 3.0 0.00 0.00 0.00 41 1023.1
20260902091522 76 193 1.0 3.0 0.00 0.00 0.00 41 1023.1
20260902091337 76 190 1.0 2.0 0.00 0.00 0.00 42 1023.2
20260902090606 75 204 0.0 2.0 0.00 0.00 0.00 41 1023.2
20260902090518 75 209 0.0 2.0 0.00 0.00 0.00 41 1023.1
20260902090338 74 186 0.0 1.0 0.00 0.00 0.00 42 1023.1
20260902085606 73 142 0.0 1.0 0.00 0.00 0.00 43 1023.1
20260902085518 73 138 0.0 1.0 0.00 0.00 0.00 44 1023.1
20260902085334 72 155 0.0 1.0 0.00 0.00 0.00 43 1023.0
20260902084837 71 202 0.0 0.0 0.00 0.00 0.00 48 1023.0
20260902084517 71 209 0.0 0.0 0.00 0.00 0.00 47 1022.9
20260902084339 69 229 0.0 0.0 0.00 0.00 0.00 47 1022.9
20260902083606 69 229 0.0 0.0 0.00 0.00 0.00 47 1022.9
20260902083516 69 229 0.0 0.0 0.00 0.00 0.00 47 1022.9
20260902083106 69 229 0.0 0.0 0.00 0.00 0.00 49 1022.9
20260902082606 69 228 0.0 0.0 0.00 0.00 0.00 52 1022.8
20260902082519 69 228 0.0 0.0 0.00 0.00 0.00 52 1022.8
20260902082105 68 227 0.0 0.0 0.00 0.00 0.00 53 1022.8
20260902081606 68 227 0.0 0.0 0.00 0.00 0.00 53 1022.6
20260902081518 68 227 0.0 0.0 0.00 0.00 0.00 53 1022.6
20260902081338 68 235 0.0 0.0 0.00 0.00 0.00 52 1022.7
20260902080601 68 248 0.0 0.0 0.00 0.00 0.00 50 1022.6
20260902080516 68 250 0.0 0.0 0.00 0.00 0.00 50 1022.6
20260902075601 67 253 0.0 0.0 0.00 0.00 0.00 47 1022.7
20260902075515 67 253 0.0 0.0 0.00 0.00 0.00 47 1022.7
20260902075102 67 253 0.0 0.0 0.00 0.00 0.00 47 1022.6
20260902074602 67 253 0.0 0.0 0.00 0.00 0.00 47 1022.5
20260902074514 67 253 0.0 0.0 0.00 0.00 0.00 47 1022.5
20260902074102 67 253 0.0 0.0 0.00 0.00 0.00 47 1022.5
20260902073831 67 253 0.0 0.0 0.00 0.00 0.00 47 1022.5
20260902073513 67 253 0.0 0.0 0.00 0.00 0.00 47 1022.5
20260902073101 67 253 0.0 0.0 0.00 0.00 0.00 47 1022.4
20260902072601 67 253 0.0 3.0 0.00 0.00 0.00 47 1022.5
20260902072513 67 253 0.0 3.0 0.00 0.00 0.00 47 1022.5
20260902072101 67 253 0.0 3.0 0.00 0.00 0.00 47 1022.4
20260902071833 67 255 0.0 4.0 0.00 0.00 0.00 47 1022.3
20260902071513 67 256 1.0 4.0 0.00 0.00 0.00 47 1022.3
20260902071101 67 262 1.0 7.0 0.00 0.00 0.00 47 1022.4
20260902070601 68 260 1.0 7.0 0.00 0.00 0.00 46 1022.4
20260902070513 68 260 1.0 7.0 0.00 0.00 0.00 46 1022.4
20260902065604 69 269 2.0 7.0 0.00 0.00 0.00 41 1022.3
20260902065513 69 267 2.0 7.0 0.00 0.00 0.00 41 1022.3
20260902065101 69 259 2.0 6.0 0.00 0.00 0.00 42 1022.3
20260902064601 68 265 2.0 6.0 0.00 0.00 0.00 41 1022.3
20260902064513 68 269 2.0 6.0 0.00 0.00 0.00 41 1022.3
20260902064101 67 276 1.0 6.0 0.00 0.00 0.00 42 1022.4
20260902063601 67 282 1.0 4.0 0.00 0.00 0.00 43 1022.4
20260902063513 67 280 1.0 4.0 0.00 0.00 0.00 43 1022.4
20260902063059 67 278 1.0 3.0 0.00 0.00 0.00 44 1022.4
20260902062557 67 276 0.0 3.0 0.00 0.00 0.00 46 1022.4
20260902062513 67 274 0.0 3.0 0.00 0.00 0.00 46 1022.4
20260902062329 67 259 0.0 3.0 0.00 0.00 0.00 43 1022.3
20260902061557 67 267 0.0 3.0 0.00 0.00 0.00 44 1022.4
20260902061512 67 270 0.0 3.0 0.00 0.00 0.00 44 1022.4
20260902061055 67 296 0.0 3.0 0.00 0.00 0.00 43 1022.3
20260902060556 67 305 1.0 3.0 0.00 0.00 0.00 46 1022.1
20260902060514 67 303 0.0 3.0 0.00 0.00 0.00 46 1022.1
20260902060055 66 301 0.0 3.0 0.00 0.00 0.00 47 1022.3
20260902055555 65 311 0.0 3.0 0.00 0.00 0.00 48 1022.0
20260902055513 65 310 0.0 3.0 0.00 0.00 0.00 48 1021.9
20260902055329 64 248 0.0 4.0 0.00 0.00 0.00 52 1021.9
20260902054827 65 282 1.0 4.0 0.00 0.00 0.00 50 1022.0
20260902054513 65 299 1.0 4.0 0.00 0.00 0.00 50 1022.0
20260902054059 65 345 1.0 4.0 0.00 0.00 0.00 47 1022.0
20260902053557 64 284 2.0 5.0 0.00 0.00 0.00 48 1022.0
20260902053512 64 284 2.0 5.0 0.00 0.00 0.00 49 1021.9
20260902053058 65 301 1.0 5.0 0.00 0.00 0.00 50 1022.0
20260902052557 66 323 1.0 5.0 0.00 0.00 0.00 44 1022.1
20260902052514 66 319 1.0 5.0 0.00 0.00 0.00 44 1022.1
20260902052056 65 285 1.0 5.0 0.00 0.00 0.00 45 1022.0
20260902051556 65 280 1.0 4.0 0.00 0.00 0.00 47 1021.9
20260902051512 65 282 1.0 4.0 0.00 0.00 0.00 47 1021.8
20260902051055 65 274 1.0 4.0 0.00 0.00 0.00 49 1021.8
20260902050556 65 272 1.0 4.0 0.00 0.00 0.00 46 1021.9